AirNav   Air Wisconsin Up To $57,000 Bonus
 
 506 users online  

KFHK Knox Army Heliport
Fort Rucker/Ozark, Alabama, USA

GOING TO FORT RUCKER/OZARK?


FAA INFORMATION EFFECTIVE 31 DECEMBER 2020

Location

FAA Identifier: FHK
Lat/Long: 31-19-00.6180N 085-39-59.7670W
31-19.010300N 085-39.996117W
31.3168383,-85.6666019
(estimated)
Elevation: 225 ft. / 69 m (estimated)
Variation: 00E (1985)
From city: 5 miles SE of central business district of the associated city
Time zone: UTC -6 (UTC -5 during Daylight Saving Time)
Zip code: 36362

Heliport Operations

Heliport use: Private use. Permission required prior to landing
Activation date: 04/1982
Control tower: yes
ARTCC: JACKSONVILLE CENTER
FSS: ANNISTON FLIGHT SERVICE STATION
NOTAMs facility: OZR (NOTAM-D service available)
Attendance: MON-FRI 1230-1800
Segmented circle: no

Heliport Communications

CTAF: 348.525
KNOX TOWER: 140.5 387.85 [1400-2300Z++MON-FRI, EXC HOL.]
CAIRNS APPROACH: 125.4
CAIRNS DEPARTURE: 125.4
CLEARANCE DELIVERY: 118.075 380.1
WX ASOS at DHN (11 nm E): PHONE 334-983-5999
WX AWOS-3PT at EDN (12 nm W): 118.9 (334-347-3524)
  • APCH/DEP SVC PRVDD BY JACKSONVILLE ARTCC ON FREQS 134.3/353.5 (DOTHAN RCAG) WHEN CAIRNS APCH CLSD.
  • OPR 1400-2300Z++, EXC HOL. OT UNATTENDED.

Nearby radio navigation aids

VOR radial/distance  VOR name  Freq  Var
HEYr195/(3.5)HANCHEY VOR110.6003W
OZRr050/4.2CAIRNS VOR/DME111.2003W
EDNr087/(12.2)ENTERPRISE VOR116.6003W
RRSr277/12.2WIREGRASS VORTAC111.6002E

 
NDB name  Hdg/Dist  Freq  Var  ID
HANCHEY193/3.622103WHYE .... -.-- .
LOWE127/4.826903WLOR .-.. --- .-.
RUCKR057/9.421203WOZ --- --..
BOLL WEEVIL098/16.235203WBVG -... ...- --.
SOYYA322/35.032902WSMY ... -- -.--
JUDD091/37.126402WJUY .--- ..- -.--
BLOOD148/38.136504WTOI - --- ..

Heliport Services

Runway Information

Helipad H1

Dimensions: 1800 x 50 ft. / 549 x 15 m
Surface: asphalt
Traffic pattern: leftleft

Helipad H2

Dimensions: 1800 x 50 ft. / 549 x 15 m
Surface: asphalt
Traffic pattern: leftleft

Helipad H3

Dimensions: 1800 x 50 ft. / 549 x 15 m
Surface: asphalt
Traffic pattern: leftleft

Helipad H4

Dimensions: 1800 x 50 ft. / 549 x 15 m
Surface: asphalt
Traffic pattern: leftleft

Helipad H5

Dimensions: 1800 x 50 ft. / 549 x 15 m
Surface: asphalt
Traffic pattern: leftleft

Helipad H6

Dimensions: 1800 x 50 ft. / 549 x 15 m
Surface: asphalt
Traffic pattern: leftleft

Heliport Ownership and Management from official FAA records

Ownership: U.S. Army
Owner: US ARMY KNOX ARMY HELIPAD
9325 GUNSTON ROAD
FT BELVOIR, VA 22060

Additional Remarks

CAUTION: EXTV COPTER TRNG IN PROGRESS. W TFC LANES 1 THRU 6 USAR USE LANES 1 & 2 STU PLT TRNG USE LANES 3, 4, 5, & 6.
EXTV NGT TRNG TUE AND THU.

Instrument Procedures

There are no published instrument procedures at KFHK.

Some nearby airports with instrument procedures:

KHEY - Hanchey Army Heliport (Fort Rucker) (2 nm N)
KOZR - Cairns Army Airfield (Fort Rucker) (3 nm SW)
KLOR - Lowe Army Heliport (Fort Rucker) (5 nm NW)
71J - Ozark-Blackwell Field Airport (7 nm N)
KDHN - Dothan Regional Airport (11 nm E)
KEDN - Enterprise Municipal Airport (12 nm W)
0J6 - Headland Municipal Airport (18 nm E)
33J - Geneva Municipal Airport (19 nm SW)
 
Loc | Ops | Rwys | IFR | FBO | Links
Com | Nav | Svcs | Stats | Notes
Area around KFHK (Knox Army Heliport)
 
Road maps at: MapQuest Bing Google
 
Aerial photo
WARNING: Photo may not be current or correct
Aerial photo of KFHK (Knox Army Heliport)
Do you have a better or more recent aerial photo of Knox Army Heliport that you would like to share? If so, please send us your photo.

 
Sectional chart

 
Airport distance calculator
Flying to Knox Army Heliport? Find the distance to fly.

From to KFHK

Sunrise and sunset
Times for 17-Jan-2021
 Local
(UTC-6)
 Zulu
(UTC)
Morning civil twilight06:1712:17
Sunrise06:4312:43
Sunset17:0323:03
Evening civil twilight17:2923:29

Current date and time
Zulu (UTC)  17-Jan-2021 11:59:29
Local (UTC-6)  17-Jan-2021 05:59:29
 
METAR
KHEY 
2nm N 
171109Z AUTO 00000KT 10SM CLR M03/M04 A3001 RMK AO2 PRESRR SLP167 50004
KOZR 
3nm SW 
171133Z AUTO 00000KT 10SM CLR M03/M04 A3003 RMK AO2 SLP174 53003
KLOR 
5nm NW 
171121Z AUTO 00000KT 10SM CLR M04/M05 A3003 RMK AO2 SLP154 50005
KSXS 
10nm W 
171144Z AUTO 32003KT 10SM CLR M01/M03 A3002 RMK AO2 SLP170 53005
KDHN 
11nm E 
171153Z AUTO 00000KT 10SM CLR M02/M03 A3006 RMK AO2 SLP181 T10171033 10017 21017 53005 $
KEDN 
12nm W 
171135Z AUTO 00000KT 10SM CLR M02/M02 A3003 RMK AO2 T10251025
TAF
KOZR 
3nm SW 
161800Z 1618/1724 28012G20KT 9999 SKC 510005 QNH2991INS BECMG 1622/1623 27007KT 9999 FEW180 QNH2995INS TX11/1620Z TN00/1712Z LAST NO AMDS AFT 1621 NEXT 1910
KDHN 
11nm E 
170526Z 1706/1806 VRB03KT P6SM FEW250 FM171500 26009KT P6SM BKN250 FM172300 27004KT P6SM SKC
NOTAMs
Click for the latest NOTAMs
NOTAMs are issued by the DoD/FAA and will open in a separate window not controlled by AirNav.

 

 
 

Would you like to see your business listed on this page?

 If your business provides an interesting product or service to pilots, flight crews, aircraft, or users of the Knox Army Heliport, you should consider listing it here.  To start the listing process, click on the button below
 
Add a business
 

Other Pages about Knox Army Heliport

Update a link
 
Copyright © AirNav, LLC. All rights reserved. Privacy Policy  Contact